Vorticity
7 7 7 6 6 6 7 7 7 8 8 8 9 10 13 16 18 20 21 23 22 21 21 23 25 27 29 30 29 27 24 22 21 20 19 19 19 19 20 21 21 21 21 21 22 22 22 20 19 18 17 16 17 19 21 23 21 18 16 14 12 12 11 11 11 11 12 14 14
8 8 7 7 7 7 7 7 8 8 8 9 10 12 14 18 20 22 23 24 23 22 23 26 30 31 31 29 25 22 19 17 16 17 17 18 18 20 22 24 25 25 25 24 24 24 24 24 22 20 18 16 16 17 20 23 22 19 17 15 13 12 12 11 11 13 14 15 14
8 8 8 8 8 8 8 8 8 8 8 9 11 13 17 21 23 24 24 24 23 25 28 30 31 30 27 22 18 15 13 13 13 14 15 15 16 18 20 23 26 28 28 27 26 25 25 25 24 22 20 17 16 17 20 24 23 21 18 15 13 12 12 11 13 14 14 14 12
9 9 9 9 8 8 8 8 8 8 8 9 11 15 20 24 25 25 24 23 26 29 31 31 28 23 17 13 11 10 11 12 13 13 14 14 14 15 16 18 22 25 28 29 28 26 25 25 24 23 21 19 16 17 20 25 24 22 19 15 13 13 13 13 14 14 14 13 13
10 10 10 9 8 8 8 8 8 8 8 9 12 17 22 26 26 24 24 27 31 32 31 28 21 14 8 5 6 9 11 12 13 14 13 12 10 10 10 12 17 21 25 29 30 29 27 26 25 24 22 19 17 18 22 26 26 23 19 16 15 16 16 16 16 16 16 16 15
10 10 10 9 8 8 8 8 8 8 8 10 14 19 23 26 25 25 27 32 33 32 27 19 11 5 2 2 5 8 10 11 13 14 13 9 6 6 7 11 15 19 23 28 31 32 31 29 27 25 22 19 18 20 24 29 27 23 18 14 14 15 16 17 17 18 18 17 14
11 10 10 9 8 8 7 7 8 8 9 12 17 21 24 25 25 28 32 35 33 28 20 10 4 1 1 4 6 8 9 10 12 13 13 11 11 14 17 20 21 21 22 24 28 32 35 35 31 27 23 20 21 25 29 32 28 21 14 8 8 10 14 17 18 18 16 12 10
11 11 10 8 8 7 7 7 8 8 10 14 19 22 24 24 26 30 34 36 30 22 12 4 1 1 2 4 5 5 6 8 11 14 18 22 29 33 34 32 29 27 24 22 24 29 36 39 35 30 26 24 28 32 34 31 23 15 8 2 4 10 16 19 18 15 11 7 8
12 11 10 9 8 8 8 7 8 9 11 15 19 23 25 25 28 32 36 35 26 16 7 1 1 1 2 2 2 3 5 8 13 19 29 42 46 44 39 35 32 29 26 22 23 30 37 42 37 33 30 31 35 35 31 23 16 10 4 1 10 16 19 16 13 9 6 6 9
11 11 10 9 9 8 8 8 9 10 13 15 19 23 25 26 30 35 37 32 21 11 3 0 0 0 -0 -1 1 3 6 10 17 28 41 54 45 36 29 26 26 26 25 25 29 35 41 42 38 35 33 33 32 27 20 16 13 9 7 11 21 21 17 12 8 6 7 10 11
11 11 10 9 9 8 8 8 9 11 13 16 20 23 26 27 33 38 37 28 15 7 2 1 -1 -1 -2 -2 -0 2 7 13 21 33 43 45 27 18 16 20 24 27 30 34 38 41 41 40 37 33 30 27 22 16 11 13 14 12 12 20 23 19 13 10 8 9 10 13 11
11 11 10 10 9 8 8 8 9 11 13 17 20 23 26 28 34 38 36 24 12 6 3 -0 -2 -3 -3 -3 -1 2 7 14 22 30 32 23 9 8 15 24 31 34 36 38 37 33 29 27 26 25 25 24 19 16 15 17 12 10 10 16 16 13 10 7 8 9 10 9 9
11 11 10 10 9 8 8 9 10 11 14 17 20 23 26 29 35 37 34 23 11 5 1 -2 -3 -3 -3 -3 -2 1 6 13 19 24 22 9 5 8 16 25 30 29 28 29 24 16 9 4 8 14 21 23 19 14 10 7 3 4 6 9 9 9 7 3 4 5 6 6 8
12 11 11 10 9 8 8 8 10 12 14 17 20 23 26 28 35 37 34 23 11 4 -0 -2 -3 -3 -3 -2 -2 1 4 9 16 22 23 9 3 3 8 15 18 19 19 19 15 10 3 -2 5 14 21 23 18 12 6 4 5 7 10 9 8 8 8 4 2 2 3 5 7
12 12 11 10 9 8 8 8 10 12 14 17 20 22 25 28 34 37 34 24 11 3 -2 -3 -3 -3 -3 -3 -2 0 2 4 11 22 28 18 2 -5 -3 5 10 13 15 16 17 16 15 12 16 20 24 25 23 17 12 9 12 14 15 14 13 13 12 7 2 0 1 3 4
12 12 11 10 9 8 8 8 10 12 14 16 19 21 24 27 33 36 34 25 12 3 -2 -3 -2 -2 -3 -3 -2 -0 1 -1 6 17 27 26 8 -4 -8 -4 2 8 15 20 21 21 21 21 20 21 22 24 27 25 22 20 20 21 21 22 21 21 19 15 8 5 4 4 3
12 12 11 10 9 8 8 8 10 11 13 15 18 21 23 26 31 35 34 27 15 4 -2 -3 -2 -2 -3 -3 -3 -2 -1 -2 0 9 19 26 17 8 0 -5 -4 1 10 20 22 21 20 21 20 19 19 22 25 27 28 28 27 26 25 25 25 26 26 24 19 15 11 8 6
12 12 11 10 9 8 8 8 10 11 13 15 17 20 22 25 29 33 34 30 17 6 -1 -3 -2 -2 -3 -3 -4 -4 -3 -3 -3 2 9 17 22 21 17 9 -0 -3 2 15 22 21 19 22 22 21 20 22 23 22 21 21 21 20 19 19 22 25 28 29 25 19 14 12 12
12 12 11 10 9 8 8 8 9 10 12 14 16 19 21 24 27 31 33 32 21 10 0 -3 -1 -1 -2 -2 -4 -6 -7 -7 -6 -4 -1 6 17 26 30 25 11 -0 -4 8 20 21 19 21 25 25 25 25 24 19 14 9 8 8 9 12 18 22 24 24 18 14 13 15 18
12 12 12 10 9 8 8 8 9 10 11 12 15 18 21 23 25 28 31 32 25 14 4 -2 -2 -1 -1 -2 -4 -7 -10 -11 -11 -10 -8 -4 8 22 32 32 19 4 -5 1 16 20 18 17 23 27 29 28 25 18 11 4 4 7 12 18 22 21 18 15 12 12 14 18 19
13 13 12 10 9 8 7 8 9 9 10 11 14 17 20 22 24 26 29 31 27 19 10 1 -1 -2 -2 -2 -7 -10 -11 -11 -12 -12 -11 -9 -0 14 27 32 23 9 -2 -3 12 19 19 15 19 24 28 29 23 17 10 6 8 13 20 28 28 24 19 16 15 16 16 17 15
12 13 12 10 9 8 7 7 9 9 10 11 13 16 19 21 23 25 27 29 27 22 15 7 2 -0 -2 -4 -10 -13 -12 -8 -9 -9 -9 -8 -4 6 18 28 24 14 3 -1 9 17 22 18 18 21 26 28 24 19 15 13 15 19 24 28 24 19 15 15 16 16 15 14 11
12 13 12 11 9 8 7 8 9 9 10 10 12 14 17 20 22 23 25 27 27 24 19 13 8 3 -3 -9 -10 -9 -8 -7 -7 -6 -5 -4 -6 0 10 21 22 16 8 4 8 15 21 23 19 19 22 26 25 24 23 22 23 24 22 18 11 8 8 10 13 13 12 10 9
12 13 12 11 9 8 7 8 9 9 10 10 11 13 16 18 20 22 23 25 26 25 22 18 14 9 4 -1 -3 -5 -6 -6 -6 -5 -4 -2 -6 -4 3 14 18 16 12 9 9 12 17 22 18 14 14 19 23 24 26 27 27 24 18 10 4 -0 -2 -0 6 9 9 8 7
12 12 12 11 9 8 8 8 9 10 10 10 11 12 14 17 18 20 21 23 24 25 24 22 18 15 11 8 4 1 -2 -5 -7 -6 -3 -0 -4 -6 -4 7 13 15 15 14 11 9 10 14 15 12 9 11 15 18 20 22 21 18 14 7 2 -4 -10 -12 -5 2 6 5 5
11 12 13 12 10 8 8 8 9 10 10 10 11 12 13 15 17 19 20 21 22 23 24 24 23 20 16 12 10 8 5 -2 -4 -3 1 3 0 -5 -7 -1 9 14 16 16 14 10 7 8 12 14 15 14 13 12 12 14 13 10 5 -1 -3 -4 -5 -6 -3 1 2 1 -0
11 12 13 12 10 9 8 8 9 9 10 11 11 12 13 14 16 18 19 19 20 22 23 24 24 22 19 15 14 13 12 10 8 7 6 7 6 -1 -7 -7 5 13 16 11 16 13 9 5 9 13 18 21 20 17 13 9 7 4 -1 -5 -2 2 6 11 11 7 2 -3 -5
11 12 12 12 11 10 8 8 8 9 10 11 12 12 13 14 16 17 18 19 19 20 21 23 23 22 21 18 16 15 15 14 13 11 10 11 10 4 -4 -11 -0 11 15 5 14 16 12 5 6 9 13 17 19 18 14 6 2 -2 -5 -4 2 9 14 18 16 11 5 1 -3
10 11 12 13 12 10 9 8 8 9 10 11 12 12 13 14 15 17 18 18 19 19 20 20 20 20 20 19 17 16 15 15 15 15 14 14 13 9 1 -11 -8 4 13 6 14 16 14 8 6 6 9 12 13 12 8 1 -6 -9 -8 -3 3 8 10 11 10 7 5 4 2
9 10 12 13 12 11 9 8 8 8 10 11 12 12 13 14 14 15 17 18 19 19 19 19 19 19 19 18 17 16 15 14 14 15 16 16 15 12 6 -6 -15 -6 5 5 14 16 14 10 8 8 9 10 10 9 6 0 -9 -12 -11 -6 -1 3 6 7 5 4 2 1 1
9 10 11 12 13 12 10 9 8 8 9 10 12 13 13 13 14 15 16 18 19 19 19 19 20 20 20 19 18 16 15 13 13 14 15 17 17 15 11 2 -14 -15 -8 1 12 15 12 10 9 10 11 13 11 10 8 5 -2 -7 -8 -6 -2 1 4 6 6 5 3 2 1
9 9 10 12 13 13 11 9 8 8 8 9 11 12 13 14 14 14 15 16 17 18 18 20 21 21 20 20 19 18 16 14 13 12 13 14 15 16 14 10 -5 -14 -15 -5 8 10 9 9 9 10 11 13 15 14 11 8 5 1 -1 -3 -2 -1 1 3 4 4 4 3 2
9 9 10 11 12 13 12 11 9 8 8 8 10 11 12 13 13 14 14 15 16 17 18 19 20 20 20 20 20 19 17 16 13 11 10 10 12 14 14 14 6 -6 -13 -7 3 6 6 8 9 10 10 11 15 16 15 11 10 9 6 3 1 -0 -1 -1 -0 0 1 1 1
9 9 9 10 11 12 12 12 10 9 8 8 9 10 11 12 13 13 14 14 16 17 18 19 20 19 19 19 19 19 18 16 14 12 10 9 10 12 14 15 12 3 -4 -6 -3 2 6 7 9 10 10 10 10 11 13 14 14 15 15 13 10 7 4 2 1 1 1 1 2
9 9 9 9 11 12 12 12 11 10 9 8 9 9 11 12 13 13 13 13 15 16 18 20 21 21 21 20 20 19 18 17 15 12 11 10 11 12 13 15 14 10 4 1 3 6 9 7 7 9 10 10 8 8 8 10 11 13 14 15 14 13 12 10 8 7 6 5 6
10 9 9 9 10 11 12 13 12 11 10 9 9 9 10 11 13 13 13 12 13 15 17 20 22 23 23 23 21 20 19 17 15 12 11 10 11 12 13 14 14 13 10 5 5 7 9 8 7 8 9 10 8 7 6 7 8 10 11 12 12 13 13 13 12 11 10 9 9
10 10 9 9 10 10 11 12 12 12 11 10 9 9 9 10 12 13 13 12 12 13 15 17 20 22 24 25 24 22 20 18 15 13 11 10 11 12 12 13 13 14 13 10 7 6 7 10 9 8 8 9 8 7 6 5 7 8 9 10 10 11 11 12 12 13 13 13 13
10 10 10 9 9 10 11 11 12 12 12 11 10 9 9 9 11 12 13 12 12 12 12 14 16 20 23 25 26 25 23 21 18 15 12 11 11 11 11 12 13 14 15 15 13 12 11 12 10 8 7 8 8 7 6 6 7 8 9 10 10 10 11 11 12 13 14 15 15
10 10 10 10 10 10 10 11 12 12 12 12 11 10 9 9 10 12 13 13 12 11 11 12 14 16 19 23 26 26 26 25 22 19 15 12 11 11 11 12 14 15 16 17 18 17 15 12 11 10 9 8 9 9 8 8 9 10 11 11 11 11 11 11 11 12 12 13 14
10 10 10 10 10 10 10 10 11 12 12 12 11 10 10 9 10 11 13 14 13 12 11 11 12 13 16 19 23 26 27 26 25 23 19 14 11 11 12 13 15 16 17 18 19 19 17 12 13 12 12 11 11 12 12 12 13 13 14 13 13 12 12 12 12 12 12 12 11
10 10 10 10 10 10 10 10 11 11 12 12 12 11 10 10 10 11 13 14 14 13 13 12 12 12 13 15 19 22 24 25 25 24 21 17 13 12 13 14 16 18 19 20 20 20 18 14 13 12 12 14 13 15 16 17 18 18 18 17 16 15 13 12 13 13 13 12 12
Height
3039 3036 3032 3029 3026 3022 3018 3015 3011 3007 3003 2999 2996 2991 2987 2984 2980 2976 2972 2969 2966 2962 2959 2956 2953 2951 2948 2946 2943 2940 2938 2936 2933 2931 2929 2926 2924 2921 2919 2917 2915 2913 2911 2909 2908 2907 2906 2905 2904 2904 2903 2903 2902 2902 2902 2902 2902 2902 2902 2902 2903 2904 2906 2907 2909 2909 2910 2910 2910
3038 3035 3031 3028 3024 3021 3017 3013 3010 3006 3002 2998 2994 2990 2986 2982 2979 2975 2971 2968 2964 2961 2958 2955 2952 2950 2948 2945 2942 2940 2937 2935 2933 2930 2928 2925 2923 2920 2917 2915 2913 2911 2909 2907 2905 2904 2903 2902 2902 2901 2901 2900 2900 2900 2900 2900 2900 2900 2900 2901 2901 2903 2904 2906 2907 2907 2908 2908 2909
3037 3034 3030 3026 3023 3019 3016 3012 3008 3005 3001 2997 2993 2989 2985 2981 2977 2974 2970 2966 2963 2960 2957 2955 2952 2950 2947 2945 2942 2940 2937 2935 2932 2930 2927 2924 2921 2919 2916 2913 2911 2909 2907 2905 2903 2902 2901 2900 2899 2899 2898 2898 2898 2898 2898 2898 2898 2898 2899 2899 2900 2901 2903 2904 2906 2906 2906 2907 2907
3036 3033 3029 3026 3022 3018 3015 3011 3007 3003 3000 2996 2992 2988 2984 2980 2976 2972 2969 2966 2962 2960 2957 2954 2952 2949 2947 2945 2942 2940 2938 2935 2932 2929 2926 2924 2921 2918 2915 2912 2910 2907 2905 2903 2901 2900 2898 2897 2897 2896 2896 2896 2896 2896 2896 2896 2896 2897 2897 2898 2899 2901 2902 2903 2904 2905 2905 2905 2906
3035 3032 3028 3025 3021 3017 3014 3010 3006 3002 2998 2995 2991 2987 2983 2979 2975 2971 2968 2965 2962 2959 2956 2954 2952 2949 2947 2945 2943 2940 2938 2935 2932 2929 2926 2923 2920 2917 2914 2912 2909 2906 2904 2902 2900 2898 2896 2896 2895 2894 2894 2894 2894 2894 2894 2895 2895 2896 2897 2898 2899 2900 2901 2902 2903 2903 2904 2904 2905
3034 3030 3027 3023 3020 3016 3013 3009 3006 3002 2998 2994 2990 2986 2982 2978 2974 2971 2967 2964 2961 2959 2956 2954 2952 2950 2947 2945 2943 2941 2938 2935 2932 2929 2925 2922 2919 2916 2913 2911 2908 2905 2903 2900 2898 2896 2895 2894 2893 2892 2892 2892 2892 2892 2893 2893 2894 2895 2896 2898 2899 2900 2901 2901 2902 2902 2902 2903 2903
3033 3030 3026 3023 3019 3016 3012 3008 3005 3001 2997 2993 2989 2985 2981 2977 2973 2970 2967 2964 2961 2959 2956 2954 2952 2950 2947 2945 2943 2941 2938 2935 2931 2928 2925 2921 2918 2915 2912 2909 2906 2903 2901 2899 2897 2895 2894 2892 2891 2891 2891 2891 2891 2891 2892 2893 2894 2895 2896 2898 2899 2900 2900 2901 2901 2901 2902 2902 2902
3032 3029 3026 3022 3019 3015 3011 3008 3004 3000 2996 2991 2987 2984 2980 2976 2973 2969 2966 2963 2961 2958 2956 2954 2952 2950 2948 2946 2943 2940 2937 2934 2931 2927 2923 2920 2916 2913 2910 2907 2904 2902 2900 2898 2896 2894 2892 2891 2891 2890 2890 2890 2891 2891 2892 2893 2894 2896 2897 2898 2899 2899 2900 2900 2900 2901 2901 2902 2902
3031 3028 3025 3022 3018 3015 3011 3007 3003 2999 2995 2991 2986 2983 2979 2976 2972 2969 2966 2963 2961 2959 2956 2954 2952 2951 2948 2946 2943 2940 2937 2933 2930 2926 2923 2919 2916 2912 2909 2906 2903 2901 2899 2897 2895 2894 2892 2891 2890 2890 2890 2890 2891 2891 2893 2894 2895 2896 2897 2898 2898 2899 2899 2899 2900 2900 2901 2901 2901
3031 3028 3025 3021 3017 3013 3010 3006 3002 2998 2994 2990 2986 2982 2979 2975 2972 2969 2966 2963 2961 2959 2957 2955 2953 2951 2949 2946 2943 2940 2937 2934 2930 2926 2923 2919 2916 2912 2909 2906 2904 2901 2899 2897 2895 2893 2892 2891 2891 2890 2891 2891 2892 2893 2894 2895 2896 2896 2897 2898 2898 2898 2898 2899 2899 2900 2901 2901 2901
3031 3027 3024 3020 3016 3013 3009 3005 3001 2997 2993 2989 2986 2982 2978 2975 2971 2968 2966 2963 2961 2959 2957 2955 2953 2951 2949 2947 2944 2941 2938 2934 2931 2927 2924 2921 2917 2914 2911 2908 2905 2903 2900 2898 2896 2894 2893 2892 2892 2892 2892 2893 2893 2894 2895 2896 2896 2896 2897 2897 2897 2898 2898 2899 2900 2900 2901 2901 2901
3030 3026 3023 3019 3016 3012 3008 3004 3000 2996 2992 2989 2985 2981 2978 2975 2971 2968 2966 2964 2961 2960 2958 2956 2954 2952 2950 2947 2945 2941 2939 2935 2932 2929 2926 2922 2919 2916 2913 2911 2908 2905 2902 2900 2898 2896 2896 2895 2895 2895 2895 2896 2896 2896 2896 2896 2896 2897 2897 2897 2897 2897 2898 2899 2900 2901 2901 2901 2901
3029 3025 3022 3018 3014 3011 3007 3003 3000 2996 2992 2988 2985 2981 2978 2974 2971 2968 2966 2964 2962 2960 2958 2956 2954 2952 2950 2948 2945 2942 2940 2936 2933 2931 2927 2924 2921 2919 2916 2914 2911 2908 2906 2903 2901 2900 2899 2898 2898 2898 2897 2897 2897 2897 2896 2896 2896 2896 2896 2896 2897 2898 2899 2900 2900 2901 2901 2901 2901
3028 3025 3021 3017 3014 3010 3006 3003 2999 2996 2992 2988 2984 2981 2977 2974 2971 2968 2966 2964 2962 2960 2958 2956 2955 2953 2951 2949 2946 2943 2941 2937 2935 2932 2929 2926 2924 2922 2919 2917 2914 2911 2909 2907 2905 2903 2902 2901 2900 2899 2898 2898 2897 2896 2896 2896 2896 2896 2896 2897 2898 2899 2900 2900 2901 2901 2901 2901 2901
3027 3024 3020 3016 3013 3009 3006 3002 2999 2995 2991 2988 2984 2981 2977 2974 2971 2968 2966 2964 2962 2961 2959 2957 2955 2954 2952 2950 2947 2944 2941 2939 2936 2933 2931 2929 2926 2924 2921 2919 2916 2914 2912 2910 2908 2906 2904 2903 2901 2901 2899 2898 2897 2897 2896 2896 2896 2897 2897 2898 2899 2899 2900 2900 2900 2901 2901 2901 2901
3026 3023 3020 3016 3012 3009 3006 3002 2998 2995 2991 2987 2984 2980 2977 2974 2971 2968 2966 2964 2963 2961 2959 2957 2956 2954 2952 2951 2948 2945 2943 2940 2937 2935 2932 2930 2928 2925 2923 2921 2918 2916 2914 2912 2910 2908 2906 2905 2903 2902 2901 2900 2899 2898 2898 2897 2898 2898 2898 2899 2899 2899 2900 2900 2901 2901 2901 2901 2901
3026 3022 3019 3016 3012 3009 3005 3002 2998 2995 2991 2987 2984 2980 2977 2974 2971 2968 2966 2965 2963 2961 2960 2958 2956 2955 2953 2951 2949 2946 2943 2941 2938 2936 2933 2931 2929 2927 2925 2922 2920 2918 2916 2913 2911 2910 2908 2906 2905 2903 2902 2901 2901 2900 2899 2899 2899 2899 2899 2899 2899 2900 2900 2900 2901 2901 2901 2901 2901
3026 3022 3019 3016 3012 3009 3005 3002 2998 2995 2991 2987 2984 2980 2977 2974 2971 2969 2967 2965 2963 2962 2960 2958 2957 2955 2953 2952 2949 2947 2944 2942 2939 2937 2935 2932 2931 2928 2926 2924 2921 2919 2917 2915 2913 2911 2909 2907 2906 2904 2903 2902 2901 2901 2901 2901 2900 2900 2900 2900 2900 2900 2901 2901 2901 2901 2901 2901 2901
3025 3022 3019 3015 3012 3008 3005 3002 2998 2995 2991 2987 2984 2980 2977 2974 2971 2969 2967 2965 2964 2962 2960 2959 2957 2956 2954 2952 2950 2948 2946 2943 2941 2938 2936 2934 2932 2929 2927 2925 2923 2921 2919 2917 2914 2912 2910 2908 2907 2905 2904 2903 2902 2902 2902 2901 2901 2901 2901 2901 2901 2901 2902 2902 2902 2902 2902 2902 2902
3025 3022 3018 3015 3012 3008 3005 3001 2998 2994 2991 2987 2984 2980 2977 2974 2971 2969 2967 2965 2964 2962 2961 2959 2957 2956 2955 2953 2951 2949 2946 2944 2942 2940 2938 2935 2933 2931 2928 2926 2924 2922 2921 2921 2917 2913 2911 2910 2908 2906 2905 2904 2904 2903 2903 2902 2902 2902 2902 2902 2902 2902 2902 2902 2902 2902 2902 2903 2903
3025 3021 3018 3015 3011 3008 3005 3002 2998 2994 2991 2987 2984 2981 2977 2974 2972 2969 2967 2966 2964 2962 2961 2959 2957 2956 2955 2953 2951 2949 2947 2945 2943 2941 2939 2937 2935 2932 2930 2928 2926 2923 2922 2923 2920 2916 2913 2911 2909 2908 2907 2906 2905 2905 2904 2904 2903 2903 2903 2903 2903 2903 2902 2903 2903 2903 2903 2903 2903
3024 3021 3018 3015 3011 3008 3005 3002 2998 2995 2991 2987 2984 2981 2977 2975 2972 2970 2967 2966 2964 2962 2961 2959 2958 2956 2955 2953 2951 2950 2948 2946 2944 2942 2941 2938 2936 2934 2931 2929 2927 2924 2922 2922 2923 2920 2916 2913 2911 2910 2909 2908 2907 2907 2906 2906 2905 2905 2905 2905 2904 2904 2904 2904 2904 2904 2904 2903 2903
3024 3021 3018 3015 3012 3009 3005 3002 2998 2995 2991 2988 2984 2981 2978 2975 2972 2970 2968 2966 2964 2963 2961 2960 2958 2956 2955 2953 2951 2950 2948 2947 2945 2944 2942 2940 2938 2935 2933 2930 2928 2926 2924 2923 2923 2922 2919 2916 2915 2913 2911 2911 2910 2909 2908 2907 2907 2907 2906 2906 2906 2905 2905 2905 2905 2905 2904 2904 2903
3024 3021 3018 3015 3012 3009 3006 3002 2999 2995 2991 2988 2985 2981 2978 2975 2973 2970 2968 2966 2964 2963 2961 2960 2958 2956 2955 2953 2951 2950 2948 2947 2946 2944 2943 2941 2939 2937 2934 2931 2929 2927 2926 2925 2924 2924 2922 2920 2918 2916 2915 2914 2912 2911 2910 2910 2909 2909 2908 2907 2906 2906 2906 2906 2906 2906 2905 2905 2904
3024 3021 3018 3015 3012 3009 3006 3002 2999 2996 2992 2989 2985 2982 2978 2976 2973 2971 2968 2966 2965 2963 2961 2960 2958 2956 2955 2953 2951 2950 2949 2947 2946 2944 2943 2942 2940 2938 2936 2932 2930 2928 2928 2927 2926 2925 2924 2923 2921 2920 2918 2917 2915 2914 2913 2912 2911 2910 2909 2908 2907 2907 2906 2906 2907 2907 2906 2906 2905
3024 3021 3018 3015 3012 3009 3006 3003 2999 2996 2992 2989 2986 2982 2979 2976 2973 2971 2968 2966 2965 2963 2961 2959 2958 2956 2954 2953 2951 2950 2949 2947 2946 2945 2943 2942 2941 2939 2937 2934 2932 2930 2929 2929 2928 2927 2926 2924 2923 2922 2921 2920 2918 2916 2915 2914 2913 2912 2911 2910 2909 2908 2908 2907 2907 2907 2907 2906 2906
3024 3021 3018 3015 3012 3009 3006 3003 3000 2996 2993 2990 2986 2983 2980 2976 2973 2971 2969 2966 2965 2963 2961 2959 2958 2956 2954 2953 2951 2950 2948 2947 2946 2945 2944 2942 2941 2940 2938 2936 2934 2933 2931 2930 2929 2928 2927 2926 2924 2923 2922 2921 2920 2919 2917 2916 2915 2914 2913 2911 2911 2910 2910 2909 2908 2908 2907 2907 2907
3024 3021 3018 3015 3012 3009 3006 3003 3000 2997 2993 2990 2987 2983 2980 2977 2974 2971 2969 2967 2965 2963 2961 2959 2957 2956 2954 2952 2951 2950 2948 2947 2946 2945 2944 2943 2942 2941 2940 2938 2936 2935 2934 2932 2930 2929 2928 2927 2926 2924 2923 2921 2921 2920 2919 2917 2916 2915 2914 2913 2912 2911 2911 2910 2910 2909 2908 2908 2907
3024 3021 3018 3016 3012 3010 3006 3003 3000 2997 2994 2991 2987 2984 2981 2978 2975 2972 2969 2967 2965 2962 2961 2959 2957 2955 2954 2952 2951 2949 2948 2947 2946 2945 2944 2943 2942 2941 2940 2939 2937 2936 2935 2933 2931 2929 2928 2927 2926 2925 2924 2922 2921 2920 2919 2918 2917 2916 2915 2914 2913 2912 2912 2911 2910 2910 2909 2908 2908
3024 3021 3019 3016 3013 3010 3007 3004 3001 2997 2994 2991 2988 2985 2982 2979 2976 2972 2970 2967 2965 2962 2961 2958 2957 2955 2954 2952 2951 2949 2948 2946 2945 2944 2943 2943 2942 2941 2940 2939 2938 2937 2936 2934 2931 2929 2929 2927 2926 2926 2924 2923 2921 2920 2919 2918 2917 2916 2916 2915 2914 2913 2912 2911 2911 2910 2909 2909 2908
3024 3021 3019 3016 3013 3010 3007 3004 3001 2998 2995 2992 2989 2986 2983 2979 2976 2973 2970 2967 2965 2963 2961 2959 2957 2955 2954 2952 2951 2949 2948 2946 2945 2944 2943 2942 2942 2941 2940 2939 2938 2938 2937 2936 2931 2929 2929 2927 2927 2926 2925 2923 2922 2921 2920 2919 2918 2917 2916 2915 2914 2913 2912 2911 2911 2910 2909 2909 2908
3024 3021 3019 3016 3013 3010 3007 3004 3001 2998 2995 2992 2989 2986 2983 2981 2977 2974 2971 2968 2965 2963 2961 2959 2957 2955 2953 2952 2951 2949 2948 2946 2945 2944 2943 2942 2941 2941 2940 2939 2938 2937 2937 2937 2932 2929 2929 2927 2926 2926 2925 2924 2922 2921 2920 2919 2918 2917 2916 2915 2914 2913 2912 2911 2911 2910 2909 2908 2908
3024 3021 3019 3016 3013 3010 3007 3004 3001 2999 2996 2993 2990 2987 2984 2981 2978 2975 2972 2969 2966 2963 2961 2959 2957 2955 2953 2951 2950 2949 2947 2946 2945 2944 2943 2942 2941 2941 2940 2939 2937 2936 2937 2938 2933 2930 2928 2927 2926 2925 2925 2924 2922 2921 2921 2920 2919 2918 2916 2916 2914 2913 2912 2911 2911 2910 2909 2908 2907
3024 3021 3018 3016 3013 3010 3008 3005 3002 2999 2996 2993 2990 2987 2985 2982 2979 2976 2973 2970 2967 2964 2962 2959 2957 2955 2953 2951 2950 2949 2947 2946 2945 2943 2942 2941 2941 2940 2939 2938 2937 2936 2936 2937 2934 2930 2928 2927 2926 2925 2924 2923 2922 2921 2920 2919 2918 2917 2916 2916 2914 2913 2912 2911 2910 2910 2909 2908 2906
3024 3021 3018 3016 3013 3011 3008 3005 3002 2999 2996 2994 2991 2988 2985 2982 2980 2976 2974 2971 2968 2965 2962 2960 2958 2956 2953 2951 2950 2948 2947 2946 2944 2943 2942 2941 2940 2939 2938 2938 2937 2936 2936 2935 2935 2932 2928 2926 2926 2925 2924 2923 2922 2921 2920 2919 2918 2917 2916 2915 2914 2913 2912 2911 2910 2909 2908 2907 2906
3024 3021 3018 3016 3013 3011 3008 3006 3003 3000 2997 2994 2991 2988 2986 2983 2980 2977 2974 2971 2969 2966 2964 2961 2959 2956 2954 2952 2950 2948 2947 2945 2944 2943 2941 2940 2939 2938 2937 2937 2936 2936 2935 2934 2935 2933 2930 2926 2925 2925 2923 2922 2921 2921 2920 2919 2918 2916 2915 2914 2913 2912 2911 2910 2909 2908 2907 2906 2905
3023 3021 3018 3016 3013 3011 3008 3006 3003 3000 2997 2995 2992 2989 2986 2984 2981 2978 2975 2972 2969 2967 2964 2962 2959 2957 2954 2952 2950 2948 2946 2945 2944 2942 2941 2940 2939 2938 2936 2936 2935 2935 2934 2934 2934 2933 2930 2926 2925 2924 2923 2921 2921 2920 2919 2919 2917 2916 2915 2914 2913 2911 2910 2909 2908 2907 2906 2905 2904
3023 3021 3018 3016 3013 3011 3008 3006 3003 3001 2998 2995 2992 2990 2987 2984 2981 2979 2976 2973 2970 2967 2965 2962 2960 2957 2955 2953 2951 2948 2946 2945 2943 2942 2941 2940 2939 2937 2936 2935 2934 2933 2933 2932 2933 2932 2930 2927 2925 2924 2923 2921 2920 2919 2919 2918 2917 2916 2915 2914 2912 2911 2910 2909 2907 2906 2905 2904 2903
3023 3021 3018 3016 3014 3011 3009 3006 3003 3001 2998 2995 2993 2990 2987 2985 2982 2979 2976 2974 2971 2968 2965 2963 2961 2958 2956 2953 2951 2949 2947 2945 2944 2942 2941 2940 2938 2937 2936 2935 2934 2932 2932 2931 2931 2930 2930 2929 2925 2924 2923 2922 2920 2919 2918 2917 2916 2915 2914 2913 2912 2911 2909 2908 2907 2906 2905 2904 2903
3023 3021 3018 3016 3014 3011 3009 3006 3004 3001 2998 2996 2993 2991 2988 2985 2983 2980 2977 2975 2972 2969 2966 2964 2961 2959 2957 2955 2952 2950 2948 2946 2944 2942 2941 2940 2939 2937 2936 2935 2934 2932 2931 2930 2930 2929 2930 2930 2926 2924 2922 2921 2920 2919 2918 2916 2915 2914 2913 2912 2911 2910 2909 2907 2906 2905 2904 2903 2901
3024 3021 3019 3016 3014 3011 3009 3006 3004 3001 2999 2996 2994 2991 2989 2986 2983 2981 2978 2976 2973 2970 2968 2965 2962 2960 2958 2956 2953 2951 2949 2946 2945 2943 2941 2940 2939 2938 2936 2935 2934 2932 2931 2930 2929 2928 2929 2929 2928 2925 2922 2921 2920 2919 2917 2916 2915 2913 2912 2911 2910 2909 2907 2906 2905 2904 2903 2902 2901